Regional Weather Roundup
Issued by NWS

Home | Current Version | Previous Version | Graphics & Text | Print | Product List | Glossary On
Versions: 1 2 3 4 5 6 7 8 9 10 11 12 13 14 15 16 17 18 19 20 21 22 23 24 25 26 27 28 29 30 31 32 33 34 35 36 37 38 39 40 41 42 43 44 45 46 47 48 49 50
000
ASUS43 KBIS 260810
RWRND

NORTH DAKOTA REGIONAL WEATHER ROUNDUP
NATIONAL WEATHER SERVICE BISMARCK ND
300 AM CDT SUN APR 26 2015

NOTE: "FAIR" INDICATES FEW OR NO CLOUDS BELOW 12,000 FEET WITH NO
SIGNIFICANT WEATHER AND/OR OBSTRUCTIONS TO VISIBILITY.


NDZ001>003-009>011-017-260900-
NORTHWEST NORTH DAKOTA

CITY           SKY/WX    TMP DP  RH WIND       PRES   REMARKS
WILLISTON      PTCLDY    38  35  89 W7        29.92R
MINOT          CLOUDY    47  41  80 SE8       29.92R
MINOT AFB      CLOUDY    47  47  99 S12       29.92R
$$

NDZ018>021-031>035-040>046-260900-
SOUTHWEST NORTH DAKOTA

CITY           SKY/WX    TMP DP  RH WIND       PRES   REMARKS
BISMARCK       LGT RAIN  47  44  90 CALM      29.95R FOG
DICKINSON      CLOUDY    43  41  93 W9        29.90S
GARRISON         N/A     46  43  89 SE8       29.92S
HETTINGER ARPT CLOUDY    43  41  93 NW7       29.93R
$$

NDZ004>008-012>016-024-026-027-054-260900-
NORTHEAST NORTH DAKOTA

CITY           SKY/WX    TMP DP  RH WIND       PRES   REMARKS
GRAND FORKS    CLEAR     40  29  64 S6        30.02R
GRND FRKS AFB  CLEAR     33  28  80 SW3       30.02R
DEVILS LAKE    CLOUDY    45  39  81 SE8       29.99R
$$

NDZ022-023-025-028>030-036>039-047>053-260900-
SOUTHEAST NORTH DAKOTA

CITY           SKY/WX    TMP DP  RH WIND       PRES   REMARKS
FARGO          CLEAR     44  29  55 SE9       30.02R
JAMESTOWN      CLOUDY    47  40  76 E5        29.98R
$$




USA.gov is the U.S. government's official web portal to all federal, state and local government web resources and services.